EW4431 Weather Reports


Display with metric or nautical units.
time (UTC)temp
F
wind
direction
speed
MPH
gust
MPH
rain 1hr
in
rain 24hr
in
rain mn
in
humidity
%
barometer
mb
20260901114528 0 0.0 0.0 0.00 0.00 0.00 1010.9
20260901113025 0 0.0 0.0 0.00 0.00 0.00 1010.8
20260901111520 0 0.0 0.0 0.00 0.00 0.00 1010.7
20260901110021 77 39 0.0 3.0 0.00 0.00 0.00 65 1010.7
20260901104521 77 89 0.0 4.0 0.00 0.00 0.00 67 1010.7
20260901103012 77 72 0.0 3.0 0.00 0.00 0.00 68 1010.9
20260901101511 77 70 0.0 1.0 0.00 0.00 0.00 69 1010.8
20260901100011 77 86 0.0 0.0 0.00 0.00 0.00 69 1010.8
20260901094508 77 13 0.0 0.0 0.00 0.00 0.00 69 1010.9
20260901093009 77 79 0.0 3.0 0.00 0.00 0.00 69 1011.0
20260901091508 77 43 0.0 0.0 0.00 0.00 0.00 68 1011.0
20260901090010 77 43 0.0 0.0 0.00 0.00 0.00 67 1011.0
20260901084506 77 56 0.0 0.0 0.00 0.00 0.00 67 1011.0
20260901083012 77 55 0.0 0.0 0.00 0.00 0.00 67 1011.0
20260901081502 77 73 0.0 0.0 0.00 0.00 0.00 68 1011.0
20260901080003 77 73 0.0 0.0 0.00 0.00 0.00 69 1011.0
20260901074536 77 73 0.0 0.0 0.00 0.00 0.00 68 1011.0
20260901073037 78 73 0.0 0.0 0.00 0.00 0.00 67 1010.9
20260901071501 79 73 0.0 0.0 0.00 0.00 0.00 66 1010.9
20260901070100 79 80 0.0 2.0 0.00 0.00 0.00 65 1010.8
20260901064536 80 79 0.0 2.0 0.00 0.00 0.00 64 1010.6
20260901063032 80 63 0.0 3.0 0.00 0.00 0.00 63 1010.7
20260901061608 80 69 1.0 4.0 0.00 0.00 0.00 62 1010.5
20260901060103 81 65 0.0 3.0 0.00 0.00 0.00 60 1010.5
20260901054532 81 85 2.0 4.0 0.00 0.00 0.00 58 1010.5
20260901053027 82 91 0.0 2.0 0.00 0.00 0.00 57 1010.5
20260901051526 82 102 0.0 1.0 0.00 0.00 0.00 55 1010.6
20260901050024 82 88 1.0 4.0 0.00 0.00 0.00 54 1010.4
20260901044524 83 97 0.0 2.0 0.00 0.00 0.00 52 1010.4
20260901043024 83 117 1.0 4.0 0.00 0.00 0.00 50 1010.4
20260901041523 83 96 0.0 1.0 0.00 0.00 0.00 50 1010.5
20260901040017 83 101 0.0 4.0 0.00 0.00 0.00 50 1010.0
20260901034522 83 137 0.0 0.0 0.00 0.00 0.00 50 1010.1
20260901033014 83 150 0.0 0.0 0.00 0.00 0.00 50 1010.0
20260901031515 83 153 0.0 0.0 0.00 0.00 0.00 50 1009.7
20260901030017 83 153 0.0 0.0 0.00 0.00 0.00 49 1009.2
20260901024519 83 215 0.0 0.0 0.00 0.00 0.00 49 1009.0
20260901023010 83 213 0.0 0.0 0.00 0.00 0.00 48 1008.9
20260901021608 84 213 0.0 0.0 0.00 0.00 0.00 49 1008.9
20260901020006 84 213 0.0 1.0 0.00 0.00 0.00 48 1008.7
20260901014504 85 133 0.0 0.0 0.00 0.00 0.00 47 1008.7
20260901013004 86 131 0.0 0.0 0.00 0.00 0.00 45 1008.4
20260901011504 87 143 0.0 1.0 0.00 0.00 0.00 43 1008.6
20260901010059 88 162 0.0 2.0 0.00 0.00 0.00 43 1008.6
20260901004558 88 116 0.0 3.0 0.00 0.00 0.00 40 1008.6
20260901003100 89 115 0.0 1.0 0.00 0.00 0.00 41 1008.8
20260901001602 90 231 0.0 1.0 0.00 0.00 0.00 42 1008.8
20260901000048 89 107 0.0 4.0 0.00 0.00 0.00 45 1009.0
20260831234547 88 134 0.0 5.0 0.00 0.00 0.00 44 1009.1
20260831233046 88 85 0.0 4.0 0.00 0.00 0.00 43 1009.2
20260831231551 87 58 0.0 9.0 0.00 0.00 0.00 44 1009.2
20260831230016 88 110 2.0 8.0 0.00 0.00 0.00 43 1009.3
20260831224514 88 87 2.0 7.0 0.00 0.00 0.00 45 1009.4
20260831223007 87 81 3.0 9.0 0.00 0.00 0.00 45 1009.7
20260831221516 88 98 3.0 10.0 0.00 0.00 0.00 45 1009.9
20260831220001 88 114 0.0 7.0 0.00 0.00 0.00 47 1010.3
20260831214559 88 60 2.0 9.0 0.00 0.00 0.00 46 1010.8
20260831213055 87 58 3.0 6.0 0.00 0.00 0.00 48 1011.1
20260831211600 86 81 4.0 13.0 0.00 0.00 0.00 48 1011.4
20260831210042 85 52 5.0 10.0 0.00 0.00 0.00 54 1011.8
20260831204540 84 68 4.0 9.0 0.00 0.00 0.00 57 1012.0
20260831203041 84 42 3.0 9.0 0.00 0.00 0.00 59 1012.1
20260831201535 82 133 2.0 13.0 0.00 0.00 0.00 62 1012.1
20260831200033 80 63 5.0 11.0 0.00 0.00 0.00 65 1012.3
20260831194544 80 95 5.0 9.0 0.00 0.00 0.00 67 1012.1
20260831193019 80 79 2.0 8.0 0.00 0.00 0.00 69 1012.5
20260831191519 79 106 0.0 11.0 0.00 0.00 0.00 74 1012.5
20260831190015 78 98 3.0 10.0 0.00 0.00 0.00 71 1012.7
20260831184516 78 85 3.0 9.0 0.00 0.00 0.00 70 1012.5
20260831183008 78 101 2.0 9.0 0.00 0.00 0.00 74 1012.4
20260831181503 77 82 0.0 5.0 0.00 0.00 0.00 82 1012.4
20260831180002 76 96 0.0 4.0 0.00 0.00 0.00 84 1012.5
20260831174502 75 96 2.0 6.0 0.00 0.00 0.00 84 1012.7
20260831173029 75 85 0.0 4.0 0.00 0.00 0.00 86 1013.2
20260831171540 74 102 2.0 5.0 0.00 0.00 0.00 86 1012.9
20260831170055 74 58 1.0 7.0 0.00 0.00 0.00 88 1012.8
20260831164531 73 10 3.0 9.0 0.00 0.00 0.00 88 1012.5
20260831163020 0 0.0 0.0 0.00 0.00 0.00 1012.7
20260831161516 0 0.0 0.0 0.00 0.00 0.00 1012.8
20260831160018 0 0.0 0.0 0.00 0.00 0.00 1012.5
20260831154504 0 0.0 0.0 0.00 0.00 0.00 1013.0
20260831153102 0 0.0 0.0 0.00 0.00 0.00 1013.0
20260831151555 0 0.0 0.0 0.00 0.00 0.00 1013.0
20260831150048 0 0.0 0.0 0.00 0.00 0.00 1012.6
20260831144544 0 0.0 0.0 0.00 0.00 0.00 1012.3
20260831143042 0 0.0 0.0 0.00 0.00 0.00 1011.9
20260831141535 0 0.0 0.0 0.00 0.00 0.00 1011.6
20260831140002 0 0.0 0.0 0.00 0.00 0.00 1011.2
20260831134558 0 0.0 0.0 0.00 0.00 0.00 1010.7
20260831133054 0 0.0 0.0 0.00 0.00 0.00 1010.5
20260831131546 0 0.0 0.0 0.00 0.00 0.00 1010.0
20260831130043 0 0.0 0.0 0.00 0.00 0.00 1009.6
20260831124541 0 0.0 0.0 0.00 0.00 0.00 1009.5
20260831123032 0 0.0 0.0 0.00 0.00 0.00 1009.2
20260831121526 0 0.0 0.0 0.00 0.00 0.00 1008.9
20260831120028 0 0.0 0.0 0.00 0.00 0.00 1008.6